Location: Cabeza de los Veneras
(40.2000°N, 5.2000°W)
Time: 16:15:08
(UTC+00:00)

Okean 1 Rocket - Pass Details

Date: 18 April 2024
Orbit: 602 x 632 km, 82.5° (Epoch: 28 May)

Event Time Altitude Azimuth Distance (km) Brightness Sun altitude
Exits shadow 20:44:38 36° 149° (SSE) 991 3.6 -18.4°
Maximum altitude 20:46:06 54° 94° (E) 768 3.2 -18.7°
Drops below altitude 10° 20:50:28 10° 17° (NNE) 2,020 5.9 -19.4°
Sets 20:52:45 0° 13° (NNE) 2,934 6.8 -19.7°
